This demonstration page uses our WeatherBlox Daily Observations layout. Learn more.

Left ArrowRight Arrow

Hourly Observations for July 28, 2016

Temp ( °F °C ) Dew Point ( °F °C ) Humidity (%) Winds ( mph kmh ) Pressure ( in mb ) Visibility ( mi km ) Precip ( " mm )
12:15 am 00:15 Partly Cloudy 79 26 73 23 84 84 SSW 9 15 29.94 1014 10 16 N/A
12:35 am 00:35 Partly Cloudy 77 25 73 23 89 89 WSW 3 6 29.94 1014 10 16 N/A
12:55 am 00:55 Partly Cloudy 77 25 73 23 89 89 SW 3 6 29.94 1014 10 16 N/A
1:15 am 01:15 Mostly Cloudy 77 25 73 23 89 89 SSW 8 13 29.94 1014 10 16 N/A
1:35 am 01:35 Mostly Cloudy 79 26 73 23 84 84 N N/A 29.94 1014 10 16 N/A
1:55 am 01:55 Cloudy 77 25 73 23 89 89 N N/A 29.94 1014 10 16 N/A
2:15 am 02:15 Partly Cloudy 77 25 73 23 89 89 WNW 10 17 29.94 1014 10 16 N/A
2:35 am 02:35 Partly Cloudy 77 25 73 23 89 89 N N/A 29.94 1014 10 16 N/A
2:55 am 02:55 Clear 75 24 73 23 94 94 W 10 17 29.94 1014 10 16 N/A
3:15 am 03:15 Clear 77 25 73 23 89 89 N N/A 29.94 1014 10 16 N/A
3:35 am 03:35 Clear 77 25 73 23 89 89 N N/A 29.94 1014 10 16 N/A
3:55 am 03:55 Clear 75 24 73 23 94 94 N N/A 29.94 1014 10 16 N/A
4:15 am 04:15 Clear 75 24 73 23 94 94 W 10 17 29.91 1013 10 16 N/A
4:35 am 04:35 Clear 77 25 73 23 89 89 N N/A 29.91 1013 10 16 N/A
4:55 am 04:55 Clear 77 25 73 23 89 89 SW 7 11 29.91 1013 10 16 N/A
5:15 am 05:15 Clear 77 25 73 23 89 89 W 3 6 29.91 1013 10 16 N/A
5:35 am 05:35 Clear 77 25 73 23 89 89 SSW 9 15 29.91 1013 10 16 N/A
5:55 am 05:55 Clear 75 24 73 23 94 94 W 10 17 29.91 1013 10 16 N/A
6:15 am 06:15 Sunny 73 23 73 23 100 100 N N/A 29.91 1013 10 16 N/A
6:35 am 06:35 Sunny 75 24 73 23 94 94 WNW 12 19 29.94 1014 10 16 N/A
6:55 am 06:55 Sunny 77 25 73 23 89 89 WNW 9 15 29.94 1014 10 16 N/A
7:15 am 07:15 Sunny 77 25 73 23 89 89 NW 5 7 29.94 1014 10 16 N/A
7:35 am 07:35 Sunny 79 26 73 23 84 84 W 3 6 29.94 1014 10 16 N/A
7:55 am 07:55 Sunny 79 26 73 23 84 84 N N/A 29.94 1014 10 16 N/A
8:15 am 08:15 Sunny 81 27 73 23 79 79 N N/A 29.94 1014 10 16 N/A
8:35 am 08:35 Sunny 82 28 73 23 74 74 N N/A 29.94 1014 10 16 N/A
8:55 am 08:55 Sunny 81 27 73 23 79 79 N N/A 29.94 1014 10 16 N/A
9:15 am 09:15 Sunny 84 29 73 23 70 70 N N/A 29.91 1013 10 16 N/A
9:35 am 09:35 Sunny 86 30 73 23 66 66 N 3 6 29.91 1013 10 16 N/A
9:55 am 09:55 Sunny 86 30 73 23 66 66 N N/A 29.88 1012 10 16 N/A
10:15 am 10:15 Sunny 86 30 73 23 66 66 W 3 6 29.88 1012 10 16 N/A
10:35 am 10:35 Sunny 88 31 73 23 62 62 NNW 5 7 29.88 1012 10 16 N/A
10:55 am 10:55 Partly Cloudy 86 30 75 24 70 70 W 3 6 29.91 1013 10 16 N/A
11:15 am 11:15 Mostly Cloudy 86 30 75 24 70 70 W 3 6 29.88 1012 10 16 N/A
11:35 am 11:35 Mostly Cloudy with Light Rain 84 29 77 25 79 79 W 5 7 29.91 1013 10 16 N/A
11:55 am 11:55 Partly Cloudy 86 30 77 25 75 75 W 5 7 29.88 1012 10 16 N/A
12:15 pm 12:15 Partly Cloudy 86 30 77 25 75 75 N N/A 29.88 1012 10 16 N/A
12:35 pm 12:35 Partly Cloudy 88 31 75 24 66 66 N N/A 29.88 1012 10 16 N/A
12:55 pm 12:55 Partly Cloudy 90 32 75 24 63 63 N N/A 29.85 1011 10 16 N/A
1:15 pm 13:15 Partly Cloudy 91 33 75 24 59 59 N N/A 29.85 1011 10 16 N/A
1:35 pm 13:35 Sunny 91 33 77 25 63 63 W 8 13 29.85 1011 10 16 N/A
1:55 pm 13:55 Partly Cloudy 91 33 73 23 56 56 N N/A 29.85 1011 10 16 N/A
2:15 pm 14:15 Partly Cloudy 91 33 73 23 56 56 NW 3 6 29.85 1011 10 16 N/A
2:35 pm 14:35 Sunny 93 34 73 23 53 53 WNW 8 13 29.83 1010 10 16 N/A
2:55 pm 14:55 Mostly Cloudy 91 33 73 23 56 56 NW 7 11 29.83 1010 10 16 N/A
3:15 pm 15:15 Partly Cloudy with Nearby Thunderstorms 88 31 75 24 66 66 N 14 22 29.83 1010 10 16 N/A
3:35 pm 15:35 Sunny 82 28 73 23 74 74 NNW 17 28 29.85 1011 10 16 N/A
3:55 pm 15:55 Partly Cloudy with Thunderstorms 81 27 75 24 84 84 N 14 22 29.85 1011 10 16 N/A
4:15 pm 16:15 Mostly Cloudy with Thunderstorms 79 26 77 25 94 94 N 8 13 29.85 1011 7 11 N/A
4:35 pm 16:35 Cloudy with Thunderstorms 79 26 77 25 94 94 SSW 9 15 29.91 1013 7 11 N/A
4:55 pm 16:55 Cloudy with Heavy Rain 77 25 77 25 100 100 NNE 3 6 29.88 1012 4 6 N/A
5:15 pm 17:15 Cloudy with Light Rain 77 25 77 25 100 100 NE 6 9 29.88 1012 5 8 N/A
5:35 pm 17:35 Cloudy with Light Rain 77 25 77 25 100 100 N 12 19 29.88 1012 7 11 N/A
5:55 pm 17:55 Mostly Cloudy with Thunderstorms 77 25 77 25 100 100 N 9 15 29.85 1011 10 16 N/A
6:15 pm 18:15 Cloudy with Light Rain 77 25 77 25 100 100 N 10 17 29.85 1011 7 11 N/A
6:35 pm 18:35 Mostly Cloudy 77 25 77 25 100 100 N 10 17 29.85 1011 10 16 N/A
6:55 pm 18:55 Cloudy with Light Rain 77 25 77 25 100 100 NNE 9 15 29.88 1012 10 16 N/A
7:15 pm 19:15 Cloudy with Rain 77 25 75 24 94 94 N 12 19 29.85 1011 7 11 N/A
7:35 pm 19:35 Cloudy with Light Rain 77 25 77 25 100 100 NNE 10 17 29.88 1012 10 16 N/A
7:55 pm 19:55 Cloudy 77 25 77 25 100 100 N 6 9 29.88 1012 10 16 N/A
8:15 pm 20:15 Cloudy 77 25 77 25 100 100 NNW 7 11 29.88 1012 4 6 N/A
8:55 pm 20:55 Cloudy with Light Rain 77 25 77 25 100 100 NE 6 9 29.88 1012 5 8 N/A
9:15 pm 21:15 Cloudy with Mist and Fog 77 25 77 25 100 100 NNE 9 15 29.88 1012 5 8 N/A
9:35 pm 21:35 Cloudy with Light Rain 77 25 77 25 100 100 E 7 11 29.88 1012 5 8 N/A
9:55 pm 21:55 Cloudy with Heavy Rain 75 24 75 24 100 100 E 6 9 29.88 1012 5 8 N/A
10:15 pm 22:15 Cloudy with Drizzle 75 24 75 24 100 100 ENE 3 6 29.88 1012 7 11 N/A
10:35 pm 22:35 Cloudy 75 24 75 24 100 100 SSE 6 9 29.88 1012 7 11 N/A
10:55 pm 22:55 Cloudy 75 24 75 24 100 100 N N/A 29.88 1012 7 11 N/A
11:15 pm 23:15 Cloudy with Light Rain 75 24 75 24 100 100 NE 5 7 29.85 1011 7 11 N/A
11:35 pm 23:35 Cloudy 75 24 75 24 100 100 N 3 6 29.88 1012 7 11 N/A
11:55 pm 23:55 Cloudy with Rain 75 24 75 24 100 100 NNE 8 13 29.88 1012 7 11 N/A

Powered by AerisWeather